Regional Weather Roundup
Issued by NWS

Home | Current Version | Previous Version | Text Only | Print | Product List | Glossary Off
Versions: 1 2 3 4 5 6 7 8 9 10 11 12 13 14 15 16 17 18 19 20 21 22 23 24 25 26 27 28 29 30 31 32 33 34 35 36 37 38 39 40 41 42 43 44 45 46 47 48 49 50

000
ASUS43 KMPX 291701
RWRMN
WEATHER ROUNDUP FOR MINNESOTA
NATIONAL WEATHER SERVICE TWIN CITIES/CHANHASSEN MN
1200 PM CDT MON AUG 29 2016


NOTE: "FAIR" INDICATES FEW OR NO CLOUDS BELOW 12,000 FEET WITH NO
SIGNIFICANT WEATHER AND/OR OBSTRUCTIONS TO VISIBILITY. N/A MEANS
CURRENT SKY AND/OR WEATHER CONDITIONS ARE NOT AVAILABLE.

MNZ060>063-068>070-291800-
   Twin Cities Metro

CITY           SKY/WX    TMP DP  RH WIND       PRES   REMARKS
TWIN CITIES    PTSUNNY   79  68  69 S16       30.18F
ST PAUL        MOSUNNY   80  70  71 SE14      30.19F
CRYSTAL        SUNNY     81  67  62 SE16G24   30.15F
LAKEVILLE      MOSUNNY   77  70  78 SE7       30.21F
EDEN PRAIRIE   SUNNY     81  70  69 SE14      30.18F
LAKEVILLE      MOSUNNY   77  70  78 SE7       30.21F
SOUTH ST PAUL  MOSUNNY   79  69  70 SE12      30.20F
LAKE ELMO      FAIR      79  70  73 S15       30.20F
$$
MNZ001>005-007-008-013>017-022>024-027-028-291800-
   Northwest Minnesota

CITY           SKY/WX    TMP DP  RH WIND       PRES   REMARKS
BEMIDJI        MOSUNNY   77  67  71 W13       30.14S
HALLOCK        SUNNY     72  61  68 NW12G18   30.16S
ROSEAU         MOSUNNY   72  66  83 NW7       30.14R
THIEF RVR FALL CLOUDY    72  66  81 W10       30.17R
CROOKSTON      MOSUNNY   72  66  83 NW10      30.17R
FOSSTON        CLOUDY    73  68  83 W12       30.16R
DETROIT LAKES  MOSUNNY   77  68  73 W12       30.17S
MOORHEAD       PTSUNNY   77  70  78 NW9       30.16R
PARK RAPIDS    SUNNY     79  68  69 W10       30.16R
MAHNOMEN       CLOUDY    75  69  82 W14       30.15S
$$
MNZ006-009>011-018-025>026-291800-
   North Central Minnesota

CITY           SKY/WX    TMP DP  RH WIND       PRES   REMARKS
BAUDETTE       PTSUNNY   74  67  78 W8        30.11R
FLAG ISLAND    PTSUNNY   68  63  83 CALM      30.11R
INTL FALLS     PTSUNNY   76  65  68 W13G23    30.10F
WASKISH        SUNNY     73  66  78 W9        30.13S
BIG FORK       CLOUDY    75  66  73 SW7       30.13S
LONGVILLE      CLOUDY    75  66  73 W7        30.15R
GRAND RAPIDS   CLOUDY    72  64  76 SW6       30.16R
ORR            CLOUDY    72  63  73 W3        30.11S
COOK           PTSUNNY   72  63  73 W7        30.14R
WALKER         FAIR      75  67  74 W9        30.14S
$$
MNZ012-019>021-037-291800-
   Northeast Minnesota

CITY           SKY/WX    TMP DP  RH WIND       PRES   REMARKS
DULUTH         CLOUDY    72  64  76 W9        30.14F
ELY            CLOUDY    73  63  68 W8        30.13S
HIBBING        CLOUDY    68  63  84 SW6       30.13S
EVELETH        CLOUDY    72  64  76 W10       30.14S
DULUTH HARBOR  CLOUDY    73  66  78 W8        30.12F
TWO HARBORS    CLOUDY    75  66  73 SW7       30.10F
SILVER BAY     PTSUNNY   72  64  78 E7        30.12R
GRAND MARAIS     N/A     68  64  87 SW5       30.11F
G MARAIS ARPRT CLOUDY    75  59  57 W5        30.16F
$$
MNZ029>031-032-039>041-046>048-054>057-064-291800-
   West Central Minnesota

CITY           SKY/WX    TMP DP  RH WIND       PRES   REMARKS
FERGUS FALLS   SUNNY     81  66  61 SW12      30.15S
WHEATON        SUNNY     82  72  69 S12G17    30.16S
ALEXANDRIA     SUNNY     77  67  71 S8        30.18R
ELBOW LAKE     FAIR      78  67  67 S9        30.16S
WADENA         SUNNY     75  64  69 S9        30.17R
GLENWOOD       SUNNY     79  70  73 S14       30.17S
APPLETON       SUNNY     81  68  65 S15G21    30.15S
BENSON         SUNNY     81  68  65 S16G24    30.15S
ORTONVILLE     SUNNY     79  70  73 S12G20    30.15S
MADISON        SUNNY     79  68  69 S15G23    30.15F
WILLMAR        FAIR      79  72  78 SE13G25   30.17S
$$
MNZ033>034-036-042>043-049>051-058-059-291800-
   Central Minnesota

CITY           SKY/WX    TMP DP  RH WIND       PRES   REMARKS
ST CLOUD       SUNNY     80  71  74 S16G23    30.13R
SAUK CENTRE    FAIR      78  70  76 S16       30.16S
PAYNESVILLE    MOSUNNY   79  69  70 S10       30.16R
AITKIN         CLOUDY    73  63  68 SW6       30.14R
PINE RIVER     CLOUDY    77  64  65 SW5       30.17R
BRAINERD       MOSUNNY   75  64  68 S12       30.15R
STAPLES        SUNNY     77  63  61 S14       30.16R
LONG PRAIRIE   FAIR      77  66  69 SE7       30.17R
LITTLE FALLS   CLOUDY    73  63  68 S6        30.16R
LITCHFIELD     SUNNY     81  72  74 SE10G16   30.16F
BUFFALO        SUNNY     80  68  66 SE13G18   30.16F
MAPLE LAKE     SUNNY     80  72  75 SE8G17    30.15F
HUTCHINSON     SUNNY     78  70  77 SE14G22   30.19F
$$
MNZ037-044-045-052-053-291800-
   East Central Minnesota

CITY           SKY/WX    TMP DP  RH WIND       PRES   REMARKS
PRINCETON      SUNNY     82  70  65 S17       30.13S
MORA           MOSUNNY   77  64  65 NW3       30.17R
CAMBRIDGE      SUNNY     82  66  57 S14G20    30.12R
RUSH CITY      LGT RAIN  81  68  65 S10       30.12R
MOOSE LAKE     PTSUNNY   72  63  73 SW6       30.13R
HINCKLEY       FAIR      77  68  73 SW6       30.15R
CLOQUET        CLOUDY    70  63  78 CALM      30.14S
MCGREGOR       CLOUDY    72  64  78 S6        30.15R
$$
MNZ071>073-080-081-089-090-097-098-291800-
   Southwest Minnesota

CITY           SKY/WX    TMP DP  RH WIND       PRES   REMARKS
MONTEVIDEO     SUNNY     79  70  73 S13G20    30.18F
GRANITE FALLS  MOSUNNY   80  70  72 SE14G20   30.19F
CANBY          MOSUNNY   78  69  74 SE10      30.19F
MARSHALL       CLOUDY    76  69  79 S12       30.19F
REDWOOD FALLS  MOSUNNY   79  68  69 SE9       30.19F
OLIVIA         MOSUNNY   77  68  73 SE14G21   30.18F
PIPESTONE      CLOUDY    77  70  78 S5        30.22F
WINDOM         PTSUNNY   77  68  73 CALM      30.23S
WORTHINGTON    PTSUNNY   77  69  76 S7        30.24
JACKSON          N/A     81  68  65 S5        30.24S
TRACY          MOSUNNY   77  70  78 SE8       30.22S
SLAYTON        CLOUDY    79  70  73 CALM      30.23F
$$
MNZ065>067-074>077-082>085-091>093-291800-
   South Central Minnesota

CITY           SKY/WX    TMP DP  RH WIND       PRES   REMARKS
MANKATO          N/A    N/A N/A N/A MISG        N/A
NEW ULM          N/A     77  70  78 SE7       30.21S
ST JAMES       CLOUDY    72  64  78 CALM      30.23F
FAIRMONT       MOSUNNY   79  72  79 S6        30.23F
GLENCOE        MOSUNNY   79  71  76 SE13      30.18F
FARIBAULT      PTSUNNY   79  72  78 CALM      30.24F
OWATONNA       CLOUDY    75  70  83 E5        30.25F
WASECA         CLOUDY    75  70  83 E7        30.25F
ALBERT LEA     MOSUNNY   79  72  78 S5        30.24F
$$
MNZ078>079-086>088-094>096-291800-
   Southeast Minnesota

CITY           SKY/WX    TMP DP  RH WIND       PRES   REMARKS
ROCHESTER      PTSUNNY   81  72  74 SW3       30.26F
RED WING       CLOUDY    79  70  73 S6        30.22F
DODGE CENTER   MOSUNNY   82  73  74 NE5       30.25F
WINONA         CLOUDY    77  70  78 N7        30.24F
AUSTIN         MOSUNNY   79  72  78 S3        30.24F
PRESTON        MOSUNNY   78  70  74 S3        30.27F
$$
ABBREVIATIONS USED IN REMARKS
   TC - TEMPERATURES IN CELSIUS
  WCI - WIND CHILL INDEX
   HX - HEAT INDEX
  VSB - VISIBILITY
$$




USA.gov is the U.S. government's official web portal to all federal, state and local government web resources and services.